TimeCDT,TemperatureF,Dew PointF,Humidity,Sea Level PressureIn,VisibilityMPH,Wind Direction,Wind SpeedMPH,Gust SpeedMPH,PrecipitationIn,Events,Conditions,WindDirDegrees,DateUTC
12:13 AM,30.2,28.4,93,29.98,10.0,Calm,Calm,-,N/A,,Clear,0,2013-09-22 05:13:00
12:33 AM,30.2,28.4,93,29.98,10.0,Calm,Calm,-,N/A,,Clear,0,2013-09-22 05:33:00
12:53 AM,30.2,28.4,93,29.99,10.0,Calm,Calm,-,N/A,,Clear,0,2013-09-22 05:53:00
1:13 AM,30.2,28.4,93,29.99,10.0,Calm,Calm,-,N/A,,Clear,0,2013-09-22 06:13:00
1:33 AM,30.2,28.4,93,29.99,10.0,Calm,Calm,-,N/A,,Clear,0,2013-09-22 06:33:00
1:53 AM,30.2,26.6,86,30.00,10.0,Calm,Calm,-,N/A,,Clear,0,2013-09-22 06:53:00
2:13 AM,30.2,26.6,86,30.00,10.0,Calm,Calm,-,N/A,,Clear,0,2013-09-22 07:13:00
2:33 AM,28.4,26.6,93,30.00,10.0,Calm,Calm,-,N/A,,Clear,0,2013-09-22 07:33:00
2:53 AM,28.4,26.6,93,29.99,10.0,Calm,Calm,-,N/A,,Clear,0,2013-09-22 07:53:00
3:13 AM,28.4,26.6,93,29.99,10.0,Calm,Calm,-,N/A,,Clear,0,2013-09-22 08:13:00
3:33 AM,28.4,26.6,93,30.00,10.0,Calm,Calm,-,N/A,,Clear,0,2013-09-22 08:33:00
3:53 AM,28.4,26.6,93,30.00,10.0,Calm,Calm,-,N/A,,Clear,0,2013-09-22 08:53:00
4:13 AM,28.4,26.6,93,30.00,10.0,Calm,Calm,-,N/A,,Clear,0,2013-09-22 09:13:00
4:33 AM,28.4,26.6,93,30.01,10.0,Calm,Calm,-,N/A,,Clear,0,2013-09-22 09:33:00
4:53 AM,28.4,26.6,93,30.01,10.0,Calm,Calm,-,N/A,,Clear,0,2013-09-22 09:53:00
5:13 AM,30.2,26.6,86,30.01,10.0,Calm,Calm,-,N/A,,Clear,0,2013-09-22 10:13:00
5:33 AM,30.2,26.6,86,30.01,10.0,Calm,Calm,-,N/A,,Clear,0,2013-09-22 10:33:00
5:53 AM,30.2,26.6,86,30.01,10.0,Calm,Calm,-,N/A,,Scattered Clouds,0,2013-09-22 10:53:00
6:13 AM,33.8,30.2,87,30.01,10.0,Calm,Calm,-,N/A,,Scattered Clouds,0,2013-09-22 11:13:00
6:33 AM,33.8,32.0,93,30.01,10.0,Calm,Calm,-,N/A,,Scattered Clouds,0,2013-09-22 11:33:00
6:53 AM,37.4,33.8,87,30.02,10.0,Calm,Calm,-,N/A,,Scattered Clouds,0,2013-09-22 11:53:00
7:13 AM,37.4,35.6,93,30.02,10.0,Calm,Calm,-,N/A,,Scattered Clouds,0,2013-09-22 12:13:00
7:33 AM,41.0,37.4,87,30.03,10.0,Calm,Calm,-,N/A,,Scattered Clouds,0,2013-09-22 12:33:00
7:53 AM,42.8,39.2,87,30.03,10.0,Calm,Calm,-,N/A,,Scattered Clouds,0,2013-09-22 12:53:00
8:13 AM,44.6,39.2,81,30.03,10.0,Calm,Calm,-,N/A,,Clear,0,2013-09-22 13:13:00
8:33 AM,44.6,39.2,81,30.03,10.0,Calm,Calm,-,N/A,,Clear,0,2013-09-22 13:33:00
8:53 AM,46.4,41.0,81,30.04,10.0,SSE,3.5,-,N/A,,Clear,160,2013-09-22 13:53:00
9:13 AM,46.4,41.0,81,30.04,10.0,SE,3.5,-,N/A,,Clear,140,2013-09-22 14:13:00
9:33 AM,48.2,39.2,71,30.05,10.0,SSE,9.2,-,N/A,,Clear,150,2013-09-22 14:33:00
9:53 AM,48.2,37.4,66,30.05,10.0,ESE,8.1,-,N/A,,Clear,120,2013-09-22 14:53:00
10:13 AM,48.2,39.2,71,30.05,10.0,ESE,5.8,-,N/A,,Clear,120,2013-09-22 15:13:00
10:33 AM,48.2,37.4,66,30.05,10.0,SSE,8.1,-,N/A,,Clear,150,2013-09-22 15:33:00
10:53 AM,50.0,35.6,58,30.05,10.0,SSE,8.1,-,N/A,,Clear,150,2013-09-22 15:53:00
11:13 AM,51.8,35.6,54,30.05,10.0,SE,6.9,-,N/A,,Clear,130,2013-09-22 16:13:00
11:33 AM,51.8,35.6,54,30.04,10.0,ESE,6.9,16.1,N/A,,Clear,110,2013-09-22 16:33:00
11:53 AM,51.8,35.6,54,30.04,10.0,ESE,8.1,16.1,N/A,,Clear,110,2013-09-22 16:53:00
12:13 PM,51.8,35.6,54,30.04,10.0,East,8.1,-,N/A,,Clear,90,2013-09-22 17:13:00
12:33 PM,51.8,35.6,54,30.03,10.0,East,10.4,16.1,N/A,,Clear,80,2013-09-22 17:33:00
12:53 PM,51.8,35.6,54,30.03,10.0,ESE,8.1,16.1,N/A,,Clear,120,2013-09-22 17:53:00
1:13 PM,51.8,35.6,54,30.03,10.0,ESE,9.2,-,N/A,,Clear,110,2013-09-22 18:13:00
1:33 PM,51.8,37.4,58,30.02,10.0,East,6.9,-,N/A,,Clear,90,2013-09-22 18:33:00
1:53 PM,51.8,37.4,58,30.01,10.0,ENE,11.5,-,N/A,,Clear,70,2013-09-22 18:53:00
2:13 PM,51.8,35.6,54,30.01,10.0,East,11.5,17.3,N/A,,Clear,100,2013-09-22 19:13:00
2:33 PM,51.8,35.6,54,30.00,10.0,East,12.7,-,N/A,,Clear,80,2013-09-22 19:33:00
2:53 PM,51.8,37.4,58,30.00,10.0,East,9.2,16.1,N/A,,Clear,100,2013-09-22 19:53:00
3:13 PM,51.8,37.4,58,30.00,10.0,ENE,10.4,-,N/A,,Clear,60,2013-09-22 20:13:00
3:33 PM,51.8,37.4,58,29.99,10.0,ENE,10.4,-,N/A,,Clear,70,2013-09-22 20:33:00
3:53 PM,51.8,37.4,58,29.99,10.0,ENE,12.7,19.6,N/A,,Clear,70,2013-09-22 20:53:00
4:14 PM,51.8,37.4,58,29.99,10.0,ENE,12.7,16.1,N/A,,Clear,60,2013-09-22 21:14:00
4:33 PM,51.8,37.4,58,29.99,10.0,ENE,9.2,-,N/A,,Clear,70,2013-09-22 21:33:00
4:53 PM,50.0,37.4,62,29.98,10.0,ENE,10.4,16.1,N/A,,Clear,70,2013-09-22 21:53:00
5:13 PM,50.0,37.4,62,29.98,10.0,East,13.8,18.4,N/A,,Clear,80,2013-09-22 22:13:00
5:33 PM,50.0,37.4,62,29.98,10.0,ENE,10.4,17.3,N/A,,Clear,70,2013-09-22 22:33:00
5:53 PM,48.2,37.4,66,29.98,10.0,East,12.7,16.1,N/A,,Clear,80,2013-09-22 22:53:00
6:13 PM,48.2,37.4,66,29.97,10.0,ENE,11.5,16.1,N/A,,Clear,60,2013-09-22 23:13:00
6:33 PM,46.4,37.4,71,29.97,10.0,ENE,8.1,-,N/A,,Clear,70,2013-09-22 23:33:00
6:54 PM,46.4,37.4,71,29.97,10.0,ENE,6.9,-,N/A,,Clear,70,2013-09-22 23:54:00
7:13 PM,46.4,37.4,71,29.97,10.0,ENE,6.9,-,N/A,,Clear,60,2013-09-23 00:13:00
7:33 PM,46.4,37.4,71,29.97,10.0,ENE,4.6,-,N/A,,Clear,60,2013-09-23 00:33:00
7:53 PM,46.4,39.2,76,29.98,10.0,ENE,5.8,-,N/A,,Clear,60,2013-09-23 00:53:00
8:13 PM,46.4,39.2,76,29.98,10.0,ENE,6.9,-,N/A,,Clear,70,2013-09-23 01:13:00
8:33 PM,46.4,41.0,81,29.98,10.0,ENE,6.9,-,N/A,,Clear,70,2013-09-23 01:33:00
8:53 PM,46.4,41.0,81,29.98,10.0,ENE,5.8,-,N/A,,Clear,70,2013-09-23 01:53:00
9:13 PM,46.4,41.0,81,29.98,10.0,ENE,6.9,-,N/A,,Clear,60,2013-09-23 02:13:00
9:33 PM,46.4,42.8,87,29.98,10.0,ENE,8.1,-,N/A,,Clear,60,2013-09-23 02:33:00
9:53 PM,46.4,42.8,87,29.98,10.0,NE,5.8,-,N/A,,Clear,50,2013-09-23 02:53:00
10:13 PM,46.4,42.8,87,29.97,10.0,NE,5.8,-,N/A,,Clear,40,2013-09-23 03:13:00
10:33 PM,46.4,42.8,87,29.97,10.0,NE,5.8,-,N/A,,Clear,40,2013-09-23 03:33:00
10:54 PM,46.4,42.8,87,29.97,10.0,NE,8.1,-,N/A,,Clear,50,2013-09-23 03:54:00
11:13 PM,46.4,42.8,87,29.97,10.0,NNE,6.9,-,N/A,,Clear,30,2013-09-23 04:13:00
11:33 PM,46.4,42.8,87,29.96,10.0,Calm,Calm,-,N/A,,Clear,0,2013-09-23 04:33:00
11:53 PM,46.4,42.8,87,29.96,10.0,Calm,Calm,-,N/A,,Clear,0,2013-09-23 04:53:00